Miscellaneous Local Product
Issued by NWS Hastings, NE

Home | Current Version | Previous Version | Text Only | Print | Product List | Glossary On
Versions: 1 2 3 4 5 6 7 8 9 10 11 12 13 14 15 16 17 18 19 20 21 22 23 24 25 26 27 28 29 30 31 32 33 34 35 36 37 38 39 40 41 42 43 44 45 46 47 48 49 50
000
AXUS43 KGID 202202
MISGRI

GID CWA HOURLY WEATHER ROUNDUP
NATIONAL WEATHER SERVICE HASTINGS NE
500 PM CDT WED SEP 20 2017

NOTE: "FAIR" INDICATES FEW OR NO CLOUDS BELOW 12,000 FEET WITH NO
SIGNIFICANT WEATHER AND/OR OBSTRUCTIONS TO VISIBILITY.

...SOUTH CENTRAL NEBRASKA...

CITY           SKY/WX    TMP DP  RH WIND       PRES   REMARKS
GRAND ISLAND   SUNNY     76  39  26 CALM      29.88F
HASTINGS       SUNNY     79  38  22 E5        29.88F
KEARNEY        SUNNY     77  40  26 E7        29.88F
ORD            SUNNY     75  41  29 SE8       29.86R
YORK           SUNNY     77  43  29 N5        29.87S
AURORA         SUNNY     77  42  28 CALM      29.87F
LEXINGTON      SUNNY     79  34  19 S5        29.87F
HOLDREGE       SUNNY     77  36  22 E5        29.87F
HEBRON         SUNNY     83  48  28 NE9       29.84S

...NEBRASKA PANHANDLE...

CITY           SKY/WX    TMP DP  RH WIND       PRES   REMARKS
CHADRON        MOSUNNY   77  27  15 SW17G23   29.77F
ALLIANCE       SUNNY     73  36  25 S21G28    29.85F
SCOTTSBLUFF    SUNNY     76  33  21 S16       29.82F
SIDNEY         SUNNY     76  28  17 S21G30    29.88F

...WESTERN AND NORTH CENTRAL NEBRASKA...

CITY           SKY/WX    TMP DP  RH WIND       PRES   REMARKS
VALENTINE      SUNNY     78  28  16 SW20      29.82F
AINSWORTH      SUNNY     75  34  22 SW5       29.85S
ONEILL         SUNNY     75  40  28 CALM      29.86S
BROKEN BOW     SUNNY     77  38  24 SE7       29.87S
IMPERIAL       SUNNY     79  24  13 S14       29.88F
NORTH PLATTE   SUNNY     77  35  21 VRB3      29.87F
MCCOOK         SUNNY     80  32  17 E9        29.87F

...EASTERN NEBRASKA...

CITY           SKY/WX    TMP DP  RH WIND       PRES   REMARKS
NORFOLK        SUNNY     75  43  31 CALM      29.85S
SO SIOUX CITY  SUNNY     76  46  34 CALM      29.86S
TEKAMAH        SUNNY     77  46  33 N9        29.85S
COLUMBUS       SUNNY     78  44  29 NE7       29.86F
ALBION         SUNNY     76  46  33 CALM      29.87S
OMAHA EPPLEY   SUNNY     80  52  37 N10       29.84R
OFFUTT AFB     SUNNY     80  54  40 N7        29.84R
MILLARD        SUNNY     80  55  42 N8        29.85R
LINCOLN        SUNNY     82  52  35 NE12      29.85S
NEBRASKA CITY  SUNNY     81  59  48 N9        29.83S
BEATRICE       SUNNY     83  56  38 N6        29.83S
FALLS CITY     SUNNY     84  64  50 N3        29.80R

...NORTHERN KANSAS...

CITY           SKY/WX    TMP DP  RH WIND       PRES   REMARKS
GOODLAND       SUNNY     77  32  19 S12G23    29.89F
HILL CITY      SUNNY     83  32  16 E6        29.86F
NORTON         CLEAR     81  25  12 E8        29.86
PHILLIPSBURG   SUNNY     84  28  13 NE6       29.85F
SMITH CENTER   SUNNY     81  41  24 NE8       29.85F
HAYS           SUNNY     85  38  18 NE10      29.84S
RUSSELL        SUNNY     87  43  21 NE10G20   29.82S
CONCORDIA      SUNNY     84  56  38 NE9       29.82S
SALINA         SUNNY     88  56  33 VRB6      29.80F
TOPEKA         CLOUDY    88  72  58 S8        29.77S HX  94



USA.gov is the U.S. government's official web portal to all federal, state and local government web resources and services.